GW4116 Weather Reports


time (UTC)temp
C
wind
direction
speed
KPH
gust
KPH
rain 1hr
cm
rain 24hr
cm
rain mn
cm
humidity
%
barometer
mb
20260906220040 31 62 3.2 6.4 0.00 0.00 0.00 34 1016.1
20260906215020 31 56 8.0 14.5 0.00 0.00 0.00 35 1016.2
20260906214017 31 80 3.2 11.3 0.00 0.00 0.00 35 1016.4
20260906213017 31 101 3.2 8.0 0.00 0.00 0.00 34 1016.6
20260906212017 31 47 3.2 9.7 0.00 0.00 0.00 35 1016.8
20260906211017 32 93 3.2 8.0 0.00 0.00 0.00 35 1017.0
20260906210037 31 58 1.6 6.4 0.00 0.00 0.00 36 1017.2
20260906205018 31 65 3.2 8.0 0.00 0.00 0.00 36 1017.3
20260906204017 31 46 3.2 9.7 0.00 0.00 0.00 35 1017.5
20260906203038 30 114 1.6 8.0 0.00 0.00 0.00 33 1017.5
20260906202018 30 63 4.8 14.5 0.00 0.00 0.00 37 1017.6
20260906201018 30 81 3.2 12.9 0.00 0.00 0.00 37 1017.7
20260906200018 29 63 3.2 8.0 0.00 0.00 0.00 39 1017.8
20260906195018 28 64 4.8 11.3 0.00 0.00 0.00 39 1017.8
20260906194015 28 37 4.8 11.3 0.00 0.00 0.00 41 1018.0
20260906193018 28 100 3.2 8.0 0.00 0.00 0.00 40 1018.1
20260906192019 28 75 3.2 8.0 0.00 0.00 0.00 41 1018.2
20260906191019 28 56 3.2 8.0 0.00 0.00 0.00 40 1018.4
20260906190019 27 59 6.4 14.5 0.00 0.00 0.00 41 1018.6
20260906185017 27 48 6.4 11.3 0.00 0.00 0.00 43 1018.9
20260906184016 27 25 4.8 14.5 0.00 0.00 0.00 46 1019.1
20260906183017 26 90 3.2 9.7 0.00 0.00 0.00 46 1019.3
20260906182017 26 57 6.4 11.3 0.00 0.00 0.00 50 1019.5
20260906181020 26 48 4.8 11.3 0.00 0.00 0.00 51 1019.6
20260906180037 25 87 3.2 6.4 0.00 0.00 0.00 53 1019.8
20260906175017 25 43 3.2 8.0 0.00 0.00 0.00 55 1020.1
20260906174017 25 49 3.2 8.0 0.00 0.00 0.00 57 1020.3
20260906173018 24 312 1.6 4.8 0.00 0.00 0.00 57 1020.6
20260906172017 24 295 3.2 6.4 0.00 0.00 0.00 57 1020.6
20260906171017 23 210 1.6 4.8 0.00 0.00 0.00 59 1020.9
20260906170018 23 234 1.6 4.8 0.00 0.00 0.00 60 1021.1
20260906165018 22 47 4.8 9.7 0.00 0.00 0.00 63 1021.2
20260906164018 22 39 3.2 8.0 0.00 0.00 0.00 64 1021.2
20260906163018 22 30 4.8 11.3 0.00 0.00 0.00 65 1021.2
20260906162018 22 336 3.2 8.0 0.00 0.00 0.00 66 1021.2
20260906161038 21 310 1.6 6.4 0.00 0.00 0.00 67 1021.1
20260906160019 21 320 3.2 9.7 0.00 0.00 0.00 68 1021.1
20260906155015 21 26 4.8 11.3 0.00 0.00 0.00 68 1021.2
20260906154020 20 350 4.8 9.7 0.00 0.00 0.00 69 1021.3
20260906153019 20 310 4.8 9.7 0.00 0.00 0.00 70 1021.4
20260906152019 20 19 4.8 9.7 0.00 0.00 0.00 71 1021.3
20260906151019 20 301 4.8 11.3 0.00 0.00 0.00 72 1021.5
20260906150017 19 325 4.8 9.7 0.00 0.00 0.00 74 1021.3
20260906145017 19 20 4.8 12.9 0.00 0.00 0.00 75 1021.4
20260906144016 19 343 4.8 11.3 0.00 0.00 0.00 73 1021.4
20260906143020 19 291 3.2 8.0 0.00 0.00 0.00 74 1021.3
20260906142020 19 292 3.2 8.0 0.00 0.00 0.00 73 1021.4
20260906141017 18 350 3.2 8.0 0.00 0.00 0.00 75 1021.5
20260906140017 18 294 4.8 9.7 0.00 0.00 0.00 76 1021.3
20260906135018 18 320 4.8 11.3 0.00 0.00 0.00 75 1021.2
20260906134017 17 287 4.8 12.9 0.00 0.00 0.00 76 1021.2
20260906133030 17 246 4.8 9.7 0.00 0.00 0.00 77 1021.1
20260906132031 17 287 4.8 8.0 0.00 0.00 0.00 79 1021.1
20260906131030 16 278 4.8 8.0 0.00 0.00 0.00 81 1021.0
20260906130030 16 24 1.6 4.8 0.00 0.00 0.00 82 1021.0
20260906125050 16 55 1.6 4.8 0.00 0.00 0.00 81 1020.9
20260906124030 16 343 3.2 4.8 0.00 0.00 0.00 81 1020.9
20260906123030 16 266 3.2 4.8 0.00 0.00 0.00 81 1020.9
20260906122031 16 285 3.2 4.8 0.00 0.00 0.00 81 1020.9
20260906121030 16 197 3.2 6.4 0.00 0.00 0.00 80 1020.9
20260906120031 16 336 3.2 4.8 0.00 0.00 0.00 83 1020.8
20260906115016 16 44 3.2 4.8 0.00 0.00 0.00 84 1020.8
20260906114136 16 8 3.2 4.8 0.00 0.00 0.00 83 1021.0
20260906113016 16 352 3.2 4.8 0.00 0.00 0.00 84 1020.8
20260906112016 16 12 3.2 4.8 0.00 0.00 0.00 84 1020.8
20260906111016 17 342 3.2 6.4 0.00 0.00 0.00 83 1020.7
20260906110016 17 2 3.2 6.4 0.00 0.00 0.00 82 1020.6
20260906105031 17 10 3.2 6.4 0.00 0.00 0.00 81 1020.5
20260906104032 17 7 3.2 4.8 0.00 0.00 0.00 79 1020.6
20260906103057 17 10 3.2 4.8 0.00 0.00 0.00 78 1020.5
20260906102017 17 10 3.2 6.4 0.00 0.00 0.00 77 1020.5
20260906101017 17 26 3.2 6.4 0.00 0.00 0.00 75 1020.4
20260906100037 17 340 1.6 4.8 0.00 0.00 0.00 75 1020.3
20260906095038 18 2 3.2 4.8 0.00 0.00 0.00 73 1020.4
20260906094017 18 21 3.2 4.8 0.00 0.00 0.00 71 1020.5
20260906093018 18 44 4.8 8.0 0.00 0.00 0.00 69 1020.5
20260906092018 18 42 4.8 8.0 0.00 0.00 0.00 68 1020.4
20260906091038 19 44 3.2 6.4 0.00 0.00 0.00 67 1020.2
20260906090018 19 333 3.2 8.0 0.00 0.00 0.00 64 1020.0
20260906085018 20 14 3.2 6.4 0.00 0.00 0.00 62 1019.8
20260906084019 20 21 4.8 6.4 0.00 0.00 0.00 58 1019.7
20260906083022 20 27 4.8 11.3 0.00 0.00 0.00 55 1019.6
20260906082022 21 33 6.4 12.9 0.00 0.00 0.00 53 1019.7
20260906081019 21 40 8.0 16.1 0.00 0.00 0.00 48 1019.7
20260906080022 22 41 9.7 14.5 0.00 0.00 0.00 44 1019.5
20260906075042 22 40 6.4 11.3 0.00 0.00 0.00 43 1019.2
20260906074022 22 344 4.8 9.7 0.00 0.00 0.00 43 1019.3
20260906073019 22 342 3.2 6.4 0.00 0.00 0.00 44 1019.5
20260906072020 21 306 3.2 4.8 0.00 0.00 0.00 45 1019.6
20260906071019 22 15 1.6 3.2 0.00 0.00 0.00 47 1019.5
20260906070019 22 303 3.2 4.8 0.00 0.00 0.00 48 1019.5
20260906065041 22 302 3.2 4.8 0.00 0.00 0.00 46 1019.6
20260906064023 22 234 3.2 12.9 0.00 0.00 0.00 47 1019.7
20260906063040 22 329 3.2 4.8 0.00 0.00 0.00 49 1019.7
20260906062020 22 277 4.8 6.4 0.00 0.00 0.00 44 1019.8
20260906061020 23 280 1.6 1.6 0.00 0.00 0.00 41 1019.6
20260906060020 23 42 3.2 4.8 0.00 0.00 0.00 41 1019.2
20260906055020 23 8 1.6 3.2 0.00 0.00 0.00 42 1019.5
20260906054021 23 327 1.6 3.2 0.00 0.00 0.00 42 1019.8
20260906053021 23 353 1.6 1.6 0.00 0.00 0.00 43 1020.1
20260906052021 23 39 1.6 1.6 0.00 0.00 0.00 40 1020.3
20260906051021 23 256 3.2 4.8 0.00 0.00 0.00 39 1020.3
20260906050021 23 214 1.6 4.8 0.00 0.00 0.00 42 1020.6
20260906045022 23 190 1.6 3.2 0.00 0.00 0.00 43 1020.3
20260906044101 23 275 3.2 4.8 0.00 0.00 0.00 42 1019.6
20260906043022 23 346 1.6 3.2 0.00 0.00 0.00 40 1019.4
20260906042022 23 18 1.6 4.8 0.00 0.00 0.00 41 1019.5
20260906041022 23 274 1.6 3.2 0.00 0.00 0.00 39 1019.2
20260906040021 23 120 0.0 1.6 0.00 0.00 0.00 39 1019.1
20260906035059 23 90 0.0 1.6 0.00 0.00 0.00 37 1018.9
20260906034039 24 62 1.6 4.8 0.00 0.00 0.00 36 1018.9
20260906033056 25 268 1.6 3.2 0.00 0.00 0.00 36 1018.9
20260906032017 25 11 1.6 3.2 0.00 0.00 0.00 34 1018.7
20260906031017 25 2 1.6 3.2 0.00 0.00 0.00 34 1018.4
20260906030020 25 41 3.2 6.4 0.00 0.00 0.00 34 1018.2
20260906025017 25 49 3.2 6.4 0.00 0.00 0.00 33 1017.9
20260906024018 26 43 3.2 6.4 0.00 0.00 0.00 33 1017.9
20260906023017 26 40 3.2 4.8 0.00 0.00 0.00 33 1017.8
20260906022019 26 14 3.2 6.4 0.00 0.00 0.00 33 1017.9
20260906021018 27 329 3.2 8.0 0.00 0.00 0.00 32 1017.8
20260906020018 27 1 3.2 8.0 0.00 0.00 0.00 32 1017.8
20260906015018 27 326 3.2 6.4 0.00 0.00 0.00 31 1017.6
20260906014018 28 351 6.4 11.3 0.00 0.00 0.00 30 1017.5
20260906013018 28 329 4.8 11.3 0.00 0.00 0.00 29 1017.4
20260906012018 28 322 3.2 6.4 0.00 0.00 0.00 29 1017.4
20260906011018 28 296 4.8 12.9 0.00 0.00 0.00 28 1017.4
20260906010016 29 332 4.8 9.7 0.00 0.00 0.00 28 1017.3
20260906005036 30 348 3.2 9.7 0.00 0.00 0.00 27 1017.3
20260906004019 30 346 3.2 9.7 0.00 0.00 0.00 26 1017.3
20260906003147 30 356 3.2 11.3 0.00 0.00 0.00 25 1017.3
20260906002026 31 347 4.8 9.7 0.00 0.00 0.00 24 1017.2
20260906001017 31 341 4.8 11.3 0.00 0.00 0.00 24 1017.1
20260906000019 32 339 4.8 9.7 0.00 0.00 0.00 23 1017.0
20260905235020 32 355 4.8 9.7 0.00 0.00 0.00 22 1016.9
20260905234037 32 26 4.8 11.3 0.00 0.00 0.00 22 1016.9
20260905233017 32 249 1.6 4.8 0.00 0.00 0.00 22 1016.8
20260905232018 33 42 1.6 8.0 0.00 0.00 0.00 21 1016.8
20260905231017 32 309 1.6 3.2 0.00 0.00 0.00 22 1016.8
20260905230038 32 267 3.2 4.8 0.00 0.00 0.00 22 1016.7
20260905225018 33 4 1.6 6.4 0.00 0.00 0.00 22 1016.7
20260905224017 32 255 1.6 6.4 0.00 0.00 0.00 21 1016.7
20260905223038 32 280 1.6 3.2 0.00 0.00 0.00 21 1016.8
20260905222038 32 65 3.2 9.7 0.00 0.00 0.00 23 1016.9
20260905221038 32 60 3.2 9.7 0.00 0.00 0.00 22 1016.9